Tracking 21470 objects as of 25-Sep-2020
HD Live streaming from Space Station
objects crossing your sky now

MINOTAUR 4 R/B

Track MINOTAUR 4 R/B now!
10-day predictions


NORAD ID: 37228
Int'l Code: 2010-062G
Perigee: 628.3 km
Apogee: 650.0 km
Inclination: 72.0 °
Period: 97.4 minutes
Semi major axis: 7010 km
RCS: Unknown
Launch date: November 20, 2010
Source: United States (US)
Launch site: Kodiak Island, Alaska (KODAK)

Note: This is a ROCKET BODY
aabbcc
Your satellite tracking list
Your tracking list is empty




NASA's NSSDC Master Catalog

Two Line Element Set (TLE):
1 37228U 10062G   20263.79852799 0.00000100  00000-0  13444-4 0    04
2 37228  71.9647 122.6103 0015505  85.0132 274.9867 14.79143882    08
Source of the keplerian elements: McCants